| time (UTC) | temp F | wind direction | speed MPH | gust MPH | rain 1hr in | rain 24hr in | rain mn in | humidity % | barometer mb |
| 20260902205457 | 63 | 116 | 7.0 | 11.0 | 0.00 | 0.00 | 0.00 | 63 | 1002.1 |
| 20260902205144 | 0 | 0.0 | 0.0 | 0.00 | 0.00 | 0.00 | |||
| 20260902204958 | 63 | 120 | 8.0 | 13.0 | 0.00 | 0.00 | 0.00 | 63 | 1002.2 |
| 20260902204644 | 0 | 0.0 | 0.0 | 0.00 | 0.00 | 0.00 | |||
| 20260902204457 | 63 | 124 | 9.0 | 15.0 | 0.00 | 0.00 | 0.00 | 62 | 1002.2 |
| 20260902204144 | 0 | 0.0 | 0.0 | 0.00 | 0.00 | 0.00 | |||
| 20260902203641 | 0 | 0.0 | 0.0 | 0.00 | 0.00 | 0.00 | |||
| 20260902203457 | 63 | 132 | 5.0 | 9.0 | 0.00 | 0.00 | 0.00 | 63 | 1002.2 |
| 20260902203141 | 0 | 0.0 | 0.0 | 0.00 | 0.00 | 0.00 | |||
| 20260902202957 | 63 | 124 | 8.0 | 15.0 | 0.00 | 0.00 | 0.00 | 62 | 1002.1 |
| 20260902202641 | 0 | 0.0 | 0.0 | 0.00 | 0.00 | 0.00 | |||
| 20260902202457 | 63 | 119 | 9.0 | 14.0 | 0.00 | 0.00 | 0.00 | 62 | 1002.2 |
| 20260902202142 | 0 | 0.0 | 0.0 | 0.00 | 0.00 | 0.00 | |||
| 20260902201959 | 64 | 119 | 7.0 | 11.0 | 0.00 | 0.00 | 0.00 | 62 | 1002.1 |
| 20260902201642 | 0 | 0.0 | 0.0 | 0.00 | 0.00 | 0.00 | |||
| 20260902201459 | 64 | 130 | 6.0 | 8.0 | 0.00 | 0.00 | 0.00 | 62 | 1002.3 |
| 20260902201142 | 0 | 0.0 | 0.0 | 0.00 | 0.00 | 0.00 | |||
| 20260902200957 | 64 | 132 | 7.0 | 9.0 | 0.00 | 0.00 | 0.00 | 62 | 1002.2 |
| 20260902200641 | 0 | 0.0 | 0.0 | 0.00 | 0.00 | 0.00 | |||
| 20260902200458 | 64 | 139 | 6.0 | 9.0 | 0.00 | 0.00 | 0.00 | 62 | 1002.2 |
| 20260902200142 | 0 | 0.0 | 0.0 | 0.00 | 0.00 | 0.00 | |||
| 20260902200000 | 64 | 132 | 8.0 | 13.0 | 0.00 | 0.00 | 0.00 | 62 | 1001.9 |
| 20260902195641 | 0 | 0.0 | 0.0 | 0.00 | 0.00 | 0.00 | |||
| 20260902195457 | 64 | 121 | 7.0 | 13.0 | 0.00 | 0.00 | 0.00 | 63 | 1002.1 |
| 20260902195142 | 0 | 0.0 | 0.0 | 0.00 | 0.00 | 0.00 | |||
| 20260902194957 | 64 | 124 | 6.0 | 9.0 | 0.00 | 0.00 | 0.00 | 63 | 1002.3 |
| 20260902194642 | 0 | 0.0 | 0.0 | 0.00 | 0.00 | 0.00 | |||
| 20260902194457 | 64 | 117 | 7.0 | 10.0 | 0.00 | 0.00 | 0.00 | 62 | 1002.3 |
| 20260902194139 | 0 | 0.0 | 0.0 | 0.00 | 0.00 | 0.00 | |||
| 20260902193958 | 64 | 126 | 7.0 | 10.0 | 0.00 | 0.00 | 0.00 | 62 | 1002.3 |
| 20260902193458 | 64 | 121 | 6.0 | 9.0 | 0.00 | 0.00 | 0.00 | 63 | 1002.4 |
| 20260902192957 | 64 | 131 | 7.0 | 9.0 | 0.00 | 0.00 | 0.00 | 63 | 1002.5 |
| 20260902192457 | 64 | 129 | 7.0 | 10.0 | 0.00 | 0.00 | 0.00 | 62 | 1002.4 |
| 20260902191958 | 64 | 128 | 8.0 | 15.0 | 0.00 | 0.00 | 0.00 | 62 | 1002.3 |
| 20260902191458 | 64 | 137 | 7.0 | 12.0 | 0.00 | 0.00 | 0.00 | 62 | 1002.4 |
| 20260902191139 | 0 | 0.0 | 0.0 | 0.00 | 0.00 | 0.00 | |||
| 20260902190958 | 63 | 130 | 7.0 | 12.0 | 0.00 | 0.00 | 0.00 | 64 | 1002.7 |
| 20260902190640 | 0 | 0.0 | 0.0 | 0.00 | 0.00 | 0.00 | |||
| 20260902190457 | 63 | 122 | 8.0 | 12.0 | 0.00 | 0.00 | 0.00 | 64 | 1002.8 |
| 20260902190139 | 0 | 0.0 | 0.0 | 0.00 | 0.00 | 0.00 | |||
| 20260902185959 | 62 | 136 | 7.0 | 12.0 | 0.00 | 0.00 | 0.00 | 65 | 1002.6 |
| 20260902185637 | 0 | 0.0 | 0.0 | 0.00 | 0.00 | 0.00 | |||
| 20260902185457 | 62 | 118 | 9.0 | 11.0 | 0.00 | 0.00 | 0.00 | 67 | 1002.8 |
| 20260902185137 | 0 | 0.0 | 0.0 | 0.00 | 0.00 | 0.00 | |||
| 20260902184957 | 61 | 112 | 7.0 | 9.0 | 0.00 | 0.00 | 0.00 | 68 | 1003.0 |
| 20260902184637 | 0 | 0.0 | 0.0 | 0.00 | 0.00 | 0.00 | |||
| 20260902184458 | 61 | 131 | 7.0 | 13.0 | 0.00 | 0.00 | 0.00 | 69 | 1002.8 |
| 20260902183957 | 61 | 126 | 8.0 | 12.0 | 0.00 | 0.00 | 0.00 | 70 | 1003.2 |
| 20260902183638 | 0 | 0.0 | 0.0 | 0.00 | 0.00 | 0.00 | |||
| 20260902183457 | 61 | 122 | 7.0 | 10.0 | 0.00 | 0.00 | 0.00 | 69 | 1003.3 |
| 20260902182958 | 61 | 129 | 8.0 | 11.0 | 0.00 | 0.00 | 0.00 | 69 | 1003.3 |
| 20260902182638 | 0 | 0.0 | 0.0 | 0.00 | 0.00 | 0.00 | |||
| 20260902182457 | 61 | 133 | 6.0 | 9.0 | 0.00 | 0.00 | 0.00 | 70 | 1003.2 |
| 20260902182137 | 0 | 0.0 | 0.0 | 0.00 | 0.00 | 0.00 | |||
| 20260902181957 | 61 | 126 | 8.0 | 13.0 | 0.00 | 0.00 | 0.00 | 70 | 1003.3 |
| 20260902181638 | 0 | 0.0 | 0.0 | 0.00 | 0.00 | 0.00 | |||
| 20260902181457 | 61 | 135 | 6.0 | 9.0 | 0.00 | 0.00 | 0.00 | 70 | 1003.5 |
| 20260902181137 | 0 | 0.0 | 0.0 | 0.00 | 0.00 | 0.00 | |||
| 20260902180957 | 62 | 132 | 6.0 | 10.0 | 0.00 | 0.00 | 0.00 | 71 | 1003.5 |
| 20260902180459 | 62 | 118 | 8.0 | 12.0 | 0.00 | 0.00 | 0.00 | 69 | 1003.5 |
| 20260902180139 | 0 | 0.0 | 0.0 | 0.00 | 0.00 | 0.00 | |||
| 20260902175957 | 62 | 142 | 6.0 | 11.0 | 0.00 | 0.00 | 0.00 | 70 | 1003.6 |
| 20260902175638 | 0 | 0.0 | 0.0 | 0.00 | 0.00 | 0.00 | |||
| 20260902175458 | 62 | 127 | 5.0 | 9.0 | 0.00 | 0.00 | 0.00 | 70 | 1003.5 |
| 20260902174957 | 61 | 132 | 7.0 | 9.0 | 0.00 | 0.00 | 0.00 | 69 | 1003.6 |
| 20260902174635 | 0 | 0.0 | 0.0 | 0.00 | 0.00 | 0.00 | |||
| 20260902174458 | 61 | 118 | 8.0 | 10.0 | 0.00 | 0.00 | 0.00 | 70 | 1003.6 |
| 20260902174132 | 0 | 0.0 | 0.0 | 0.00 | 0.00 | 0.00 | |||
| 20260902173957 | 61 | 129 | 7.0 | 9.0 | 0.00 | 0.00 | 0.00 | 69 | 1003.6 |
| 20260902173632 | 0 | 0.0 | 0.0 | 0.00 | 0.00 | 0.00 | |||
| 20260902173458 | 61 | 127 | 7.0 | 13.0 | 0.00 | 0.00 | 0.00 | 70 | 1003.5 |
| 20260902172957 | 61 | 120 | 7.0 | 9.0 | 0.00 | 0.00 | 0.00 | 71 | 1003.5 |
| 20260902172633 | 0 | 0.0 | 0.0 | 0.00 | 0.00 | 0.00 | |||
| 20260902172458 | 61 | 121 | 7.0 | 8.0 | 0.00 | 0.00 | 0.00 | 71 | 1003.6 |
| 20260902172132 | 0 | 0.0 | 0.0 | 0.00 | 0.00 | 0.00 | |||
| 20260902171957 | 61 | 115 | 8.0 | 11.0 | 0.00 | 0.00 | 0.00 | 72 | 1003.5 |
| 20260902171633 | 0 | 0.0 | 0.0 | 0.00 | 0.00 | 0.00 | |||
| 20260902171459 | 60 | 133 | 7.0 | 11.0 | 0.00 | 0.00 | 0.00 | 73 | 1003.6 |
| 20260902171138 | 0 | 0.0 | 0.0 | 0.00 | 0.00 | 0.00 | |||
| 20260902170957 | 60 | 132 | 5.0 | 7.0 | 0.00 | 0.00 | 0.00 | 75 | 1003.7 |
| 20260902170633 | 0 | 0.0 | 0.0 | 0.00 | 0.00 | 0.00 | |||
| 20260902170459 | 59 | 121 | 7.0 | 9.0 | 0.00 | 0.00 | 0.00 | 76 | 1003.8 |
| 20260902170133 | 0 | 0.0 | 0.0 | 0.00 | 0.00 | 0.00 | |||
| 20260902165959 | 59 | 127 | 7.0 | 11.0 | 0.00 | 0.00 | 0.00 | 76 | 1003.8 |
| 20260902165634 | 0 | 0.0 | 0.0 | 0.00 | 0.00 | 0.00 | |||
| 20260902165457 | 59 | 128 | 6.0 | 9.0 | 0.00 | 0.00 | 0.00 | 77 | 1003.9 |
| 20260902165000 | 60 | 124 | 7.0 | 11.0 | 0.00 | 0.00 | 0.00 | 76 | 1003.7 |
| 20260902164457 | 60 | 127 | 8.0 | 11.0 | 0.00 | 0.00 | 0.00 | 77 | 1003.8 |
| 20260902164127 | 0 | 0.0 | 0.0 | 0.00 | 0.00 | 0.00 | |||
| 20260902163958 | 60 | 134 | 8.0 | 13.0 | 0.00 | 0.00 | 0.00 | 76 | 1003.7 |
| 20260902163625 | 0 | 0.0 | 0.0 | 0.00 | 0.00 | 0.00 | |||
| 20260902163457 | 59 | 125 | 7.0 | 12.0 | 0.00 | 0.00 | 0.00 | 77 | 1003.7 |
| 20260902163124 | 0 | 0.0 | 0.0 | 0.00 | 0.00 | 0.00 | |||
| 20260902162958 | 59 | 124 | 8.0 | 12.0 | 0.00 | 0.00 | 0.00 | 78 | 1003.7 |
| 20260902162625 | 0 | 0.0 | 0.0 | 0.00 | 0.00 | 0.00 | |||
| 20260902162457 | 59 | 138 | 9.0 | 14.0 | 0.00 | 0.00 | 0.00 | 78 | 1003.7 |
| 20260902162124 | 0 | 0.0 | 0.0 | 0.00 | 0.00 | 0.00 | |||
| 20260902161957 | 58 | 128 | 6.0 | 9.0 | 0.00 | 0.00 | 0.00 | 80 | 1003.6 |
| 20260902161625 | 0 | 0.0 | 0.0 | 0.00 | 0.00 | 0.00 | |||
| 20260902161457 | 58 | 123 | 6.0 | 10.0 | 0.00 | 0.00 | 0.00 | 81 | 1003.9 |
| 20260902161124 | 0 | 0.0 | 0.0 | 0.00 | 0.00 | 0.00 | |||
| 20260902160957 | 58 | 132 | 7.0 | 10.0 | 0.00 | 0.00 | 0.00 | 81 | 1003.9 |
| 20260902160625 | 0 | 0.0 | 0.0 | 0.00 | 0.00 | 0.00 | |||
| 20260902160457 | 58 | 125 | 8.0 | 10.0 | 0.00 | 0.00 | 0.00 | 81 | 1003.9 |
| 20260902160121 | 0 | 0.0 | 0.0 | 0.00 | 0.00 | 0.00 | |||
| 20260902155959 | 58 | 128 | 7.0 | 12.0 | 0.00 | 0.00 | 0.00 | 81 | 1004.1 |
| 20260902155622 | 0 | 0.0 | 0.0 | 0.00 | 0.00 | 0.00 | |||
| 20260902155457 | 58 | 123 | 7.0 | 11.0 | 0.00 | 0.00 | 0.00 | 80 | 1004.0 |
| 20260902155123 | 0 | 0.0 | 0.0 | 0.00 | 0.00 | 0.00 | |||
| 20260902154958 | 58 | 132 | 8.0 | 11.0 | 0.00 | 0.00 | 0.00 | 80 | 1004.1 |
| 20260902154619 | 0 | 0.0 | 0.0 | 0.00 | 0.00 | 0.00 | |||
| 20260902154458 | 58 | 142 | 6.0 | 9.0 | 0.00 | 0.00 | 0.00 | 80 | 1003.9 |
| 20260902154116 | 0 | 0.0 | 0.0 | 0.00 | 0.00 | 0.00 | |||
| 20260902153958 | 58 | 136 | 5.0 | 7.0 | 0.00 | 0.00 | 0.00 | 81 | 1004.2 |
| 20260902153616 | 0 | 0.0 | 0.0 | 0.00 | 0.00 | 0.00 | |||
| 20260902153458 | 58 | 148 | 6.0 | 10.0 | 0.00 | 0.00 | 0.00 | 82 | 1004.2 |
| 20260902153116 | 0 | 0.0 | 0.0 | 0.00 | 0.00 | 0.00 | |||
| 20260902152958 | 58 | 141 | 5.0 | 8.0 | 0.00 | 0.00 | 0.00 | 81 | 1004.2 |
| 20260902152617 | 0 | 0.0 | 0.0 | 0.00 | 0.00 | 0.00 | |||
| 20260902152457 | 58 | 145 | 6.0 | 10.0 | 0.00 | 0.00 | 0.00 | 81 | 1004.2 |
| 20260902152116 | 0 | 0.0 | 0.0 | 0.00 | 0.00 | 0.00 | |||
| 20260902151957 | 57 | 136 | 5.0 | 8.0 | 0.00 | 0.00 | 0.00 | 82 | 1004.2 |
| 20260902151617 | 0 | 0.0 | 0.0 | 0.00 | 0.00 | 0.00 | |||
| 20260902151458 | 57 | 128 | 5.0 | 9.0 | 0.00 | 0.00 | 0.00 | 83 | 1004.1 |
| 20260902151116 | 0 | 0.0 | 0.0 | 0.00 | 0.00 | 0.00 | |||
| 20260902150958 | 57 | 133 | 5.0 | 9.0 | 0.00 | 0.00 | 0.00 | 83 | 1004.0 |
| 20260902150617 | 0 | 0.0 | 0.0 | 0.00 | 0.00 | 0.00 | |||
| 20260902150458 | 57 | 134 | 6.0 | 10.0 | 0.00 | 0.00 | 0.00 | 82 | 1004.2 |
| 20260902150117 | 0 | 0.0 | 0.0 | 0.00 | 0.00 | 0.00 | |||
| 20260902145958 | 57 | 124 | 7.0 | 10.0 | 0.00 | 0.00 | 0.00 | 82 | 1004.2 |
| 20260902145617 | 0 | 0.0 | 0.0 | 0.00 | 0.00 | 0.00 | |||
| 20260902145459 | 57 | 117 | 6.0 | 8.0 | 0.00 | 0.00 | 0.00 | 82 | 1004.4 |
| 20260902144958 | 57 | 118 | 7.0 | 10.0 | 0.00 | 0.00 | 0.00 | 82 | 1004.3 |
| 20260902144614 | 0 | 0.0 | 0.0 | 0.00 | 0.00 | 0.00 | |||
| 20260902144457 | 57 | 122 | 7.0 | 10.0 | 0.00 | 0.00 | 0.00 | 82 | 1004.4 |
| 20260902144114 | 0 | 0.0 | 0.0 | 0.00 | 0.00 | 0.00 | |||
| 20260902143958 | 57 | 124 | 7.0 | 9.0 | 0.00 | 0.00 | 0.00 | 83 | 1004.3 |
| 20260902143614 | 0 | 0.0 | 0.0 | 0.00 | 0.00 | 0.00 | |||
| 20260902143457 | 57 | 124 | 8.0 | 12.0 | 0.00 | 0.00 | 0.00 | 83 | 1004.4 |
| 20260902143111 | 0 | 0.0 | 0.0 | 0.00 | 0.00 | 0.00 | |||
| 20260902142959 | 57 | 126 | 7.0 | 10.0 | 0.00 | 0.00 | 0.00 | 84 | 1004.4 |
| 20260902142612 | 0 | 0.0 | 0.0 | 0.00 | 0.00 | 0.00 | |||
| 20260902142457 | 57 | 123 | 6.0 | 9.0 | 0.00 | 0.00 | 0.00 | 84 | 1004.4 |
| 20260902142111 | 0 | 0.0 | 0.0 | 0.00 | 0.00 | 0.00 | |||
| 20260902141957 | 57 | 124 | 5.0 | 7.0 | 0.00 | 0.00 | 0.00 | 84 | 1004.5 |
| 20260902141611 | 0 | 0.0 | 0.0 | 0.00 | 0.00 | 0.00 | |||
| 20260902141457 | 56 | 124 | 5.0 | 7.0 | 0.00 | 0.00 | 0.00 | 84 | 1004.6 |
| 20260902141112 | 0 | 0.0 | 0.0 | 0.00 | 0.00 | 0.00 | |||
| 20260902140957 | 56 | 117 | 7.0 | 9.0 | 0.00 | 0.00 | 0.00 | 84 | 1004.6 |
| 20260902140612 | 0 | 0.0 | 0.0 | 0.00 | 0.00 | 0.00 | |||
| 20260902140459 | 56 | 126 | 6.0 | 9.0 | 0.00 | 0.00 | 0.00 | 85 | 1004.6 |
| 20260902140112 | 0 | 0.0 | 0.0 | 0.00 | 0.00 | 0.00 | |||
| 20260902135957 | 56 | 125 | 6.0 | 8.0 | 0.00 | 0.00 | 0.00 | 85 | 1004.6 |
| 20260902135612 | 0 | 0.0 | 0.0 | 0.00 | 0.00 | 0.00 | |||
| 20260902135457 | 56 | 122 | 6.0 | 9.0 | 0.00 | 0.00 | 0.00 | 86 | 1004.7 |
| 20260902135112 | 0 | 0.0 | 0.0 | 0.00 | 0.00 | 0.00 | |||
| 20260902134958 | 56 | 128 | 6.0 | 8.0 | 0.00 | 0.00 | 0.00 | 86 | 1004.8 |
| 20260902134612 | 0 | 0.0 | 0.0 | 0.00 | 0.00 | 0.00 | |||
| 20260902134457 | 56 | 112 | 6.0 | 7.0 | 0.00 | 0.00 | 0.00 | 86 | 1004.9 |
| 20260902134112 | 0 | 0.0 | 0.0 | 0.00 | 0.00 | 0.00 | |||
| 20260902133958 | 56 | 129 | 5.0 | 9.0 | 0.00 | 0.00 | 0.00 | 86 | 1005.0 |
| 20260902133610 | 0 | 0.0 | 0.0 | 0.00 | 0.00 | 0.00 | |||
| 20260902133457 | 56 | 130 | 5.0 | 8.0 | 0.00 | 0.00 | 0.00 | 86 | 1005.0 |
| 20260902133109 | 0 | 0.0 | 0.0 | 0.00 | 0.00 | 0.00 | |||
| 20260902132957 | 56 | 122 | 6.0 | 11.0 | 0.00 | 0.00 | 0.00 | 86 | 1005.1 |
| 20260902132610 | 0 | 0.0 | 0.0 | 0.00 | 0.00 | 0.00 | |||
| 20260902132500 | 56 | 122 | 7.0 | 9.0 | 0.00 | 0.00 | 0.00 | 86 | 1005.0 |
| 20260902132109 | 0 | 0.0 | 0.0 | 0.00 | 0.00 | 0.00 | |||
| 20260902131958 | 56 | 116 | 7.0 | 10.0 | 0.00 | 0.00 | 0.00 | 87 | 1004.9 |
| 20260902131610 | 0 | 0.0 | 0.0 | 0.00 | 0.00 | 0.00 | |||
| 20260902131457 | 56 | 116 | 7.0 | 9.0 | 0.00 | 0.00 | 0.00 | 86 | 1005.0 |
| 20260902130957 | 56 | 118 | 6.0 | 9.0 | 0.00 | 0.00 | 0.00 | 86 | 1005.0 |
| 20260902130610 | 0 | 0.0 | 0.0 | 0.00 | 0.00 | 0.00 | |||
| 20260902130458 | 56 | 124 | 7.0 | 11.0 | 0.00 | 0.00 | 0.00 | 86 | 1005.2 |
| 20260902125957 | 56 | 116 | 8.0 | 9.0 | 0.00 | 0.00 | 0.00 | 86 | 1005.0 |
| 20260902125610 | 0 | 0.0 | 0.0 | 0.00 | 0.00 | 0.00 | |||
| 20260902125458 | 56 | 115 | 9.0 | 11.0 | 0.00 | 0.00 | 0.00 | 86 | 1005.0 |
| 20260902125109 | 0 | 0.0 | 0.0 | 0.00 | 0.00 | 0.00 | |||
| 20260902124957 | 56 | 129 | 6.0 | 8.0 | 0.00 | 0.00 | 0.00 | 86 | 1005.1 |
| 20260902124610 | 0 | 0.0 | 0.0 | 0.00 | 0.00 | 0.00 | |||
| 20260902124457 | 56 | 116 | 8.0 | 11.0 | 0.00 | 0.00 | 0.00 | 86 | 1005.1 |
| 20260902124107 | 0 | 0.0 | 0.0 | 0.00 | 0.00 | 0.00 | |||
| 20260902123957 | 57 | 115 | 8.0 | 9.0 | 0.00 | 0.00 | 0.00 | 85 | 1005.2 |
| 20260902123607 | 0 | 0.0 | 0.0 | 0.00 | 0.00 | 0.00 | |||
| 20260902123458 | 57 | 119 | 9.0 | 13.0 | 0.00 | 0.00 | 0.00 | 85 | 1005.2 |
| 20260902123108 | 0 | 0.0 | 0.0 | 0.00 | 0.00 | 0.00 | |||
| 20260902122958 | 57 | 120 | 8.0 | 10.0 | 0.00 | 0.00 | 0.00 | 85 | 1005.0 |
| 20260902122607 | 0 | 0.0 | 0.0 | 0.00 | 0.00 | 0.00 | |||
| 20260902122459 | 57 | 124 | 7.0 | 9.0 | 0.00 | 0.00 | 0.00 | 85 | 1005.2 |
| 20260902122108 | 0 | 0.0 | 0.0 | 0.00 | 0.00 | 0.00 | |||
| 20260902121958 | 57 | 113 | 7.0 | 11.0 | 0.00 | 0.00 | 0.00 | 85 | 1005.1 |
| 20260902121607 | 0 | 0.0 | 0.0 | 0.00 | 0.00 | 0.00 | |||
| 20260902121457 | 57 | 115 | 9.0 | 13.0 | 0.00 | 0.00 | 0.00 | 85 | 1004.9 |
| 20260902121108 | 0 | 0.0 | 0.0 | 0.00 | 0.00 | 0.00 | |||
| 20260902120957 | 57 | 122 | 7.0 | 9.0 | 0.00 | 0.00 | 0.00 | 85 | 1005.1 |
| 20260902120608 | 0 | 0.0 | 0.0 | 0.00 | 0.00 | 0.00 | |||
| 20260902120457 | 57 | 120 | 7.0 | 11.0 | 0.00 | 0.00 | 0.00 | 85 | 1005.2 |
| 20260902120108 | 0 | 0.0 | 0.0 | 0.00 | 0.00 | 0.00 | |||
| 20260902115957 | 57 | 119 | 9.0 | 12.0 | 0.00 | 0.00 | 0.00 | 85 | 1005.3 |
| 20260902115608 | 0 | 0.0 | 0.0 | 0.00 | 0.00 | 0.00 | |||
| 20260902115458 | 57 | 122 | 6.0 | 9.0 | 0.00 | 0.00 | 0.00 | 84 | 1005.4 |
| 20260902115109 | 0 | 0.0 | 0.0 | 0.00 | 0.00 | 0.00 | |||
| 20260902114957 | 57 | 118 | 7.0 | 10.0 | 0.00 | 0.00 | 0.00 | 84 | 1005.6 |
| 20260902114608 | 0 | 0.0 | 0.0 | 0.00 | 0.00 | 0.00 | |||
| 20260902114457 | 56 | 123 | 6.0 | 7.0 | 0.00 | 0.00 | 0.00 | 84 | 1005.6 |
| 20260902113957 | 56 | 125 | 6.0 | 8.0 | 0.00 | 0.00 | 0.00 | 83 | 1005.7 |
| 20260902113605 | 0 | 0.0 | 0.0 | 0.00 | 0.00 | 0.00 | |||
| 20260902113458 | 56 | 128 | 5.0 | 9.0 | 0.00 | 0.00 | 0.00 | 83 | 1005.8 |
| 20260902113105 | 0 | 0.0 | 0.0 | 0.00 | 0.00 | 0.00 | |||
| 20260902112957 | 56 | 120 | 6.0 | 8.0 | 0.00 | 0.00 | 0.00 | 83 | 1005.8 |
| 20260902112605 | 0 | 0.0 | 0.0 | 0.00 | 0.00 | 0.00 | |||
| 20260902112457 | 56 | 118 | 7.0 | 9.0 | 0.00 | 0.00 | 0.00 | 83 | 1005.8 |
| 20260902112105 | 0 | 0.0 | 0.0 | 0.00 | 0.00 | 0.00 | |||
| 20260902111957 | 56 | 119 | 6.0 | 9.0 | 0.00 | 0.00 | 0.00 | 83 | 1005.6 |
| 20260902111605 | 0 | 0.0 | 0.0 | 0.00 | 0.00 | 0.00 | |||
| 20260902111458 | 56 | 119 | 6.0 | 9.0 | 0.00 | 0.00 | 0.00 | 83 | 1005.6 |
| 20260902111106 | 0 | 0.0 | 0.0 | 0.00 | 0.00 | 0.00 | |||
| 20260902110957 | 56 | 112 | 8.0 | 10.0 | 0.00 | 0.00 | 0.00 | 82 | 1005.6 |
| 20260902110605 | 0 | 0.0 | 0.0 | 0.00 | 0.00 | 0.00 | |||
| 20260902110457 | 56 | 124 | 7.0 | 9.0 | 0.00 | 0.00 | 0.00 | 82 | 1005.7 |
| 20260902105957 | 56 | 117 | 8.0 | 11.0 | 0.00 | 0.00 | 0.00 | 82 | 1005.7 |
| 20260902105604 | 0 | 0.0 | 0.0 | 0.00 | 0.00 | 0.00 | |||
| 20260902105457 | 56 | 114 | 7.0 | 9.0 | 0.00 | 0.00 | 0.00 | 81 | 1005.8 |
| 20260902104957 | 56 | 117 | 7.0 | 9.0 | 0.00 | 0.00 | 0.00 | 81 | 1005.8 |
| 20260902104604 | 0 | 0.0 | 0.0 | 0.00 | 0.00 | 0.00 | |||
| 20260902104457 | 56 | 113 | 7.0 | 10.0 | 0.00 | 0.00 | 0.00 | 81 | 1005.8 |
| 20260902104105 | 0 | 0.0 | 0.0 | 0.00 | 0.00 | 0.00 | |||
| 20260902103958 | 56 | 115 | 7.0 | 9.0 | 0.00 | 0.00 | 0.00 | 81 | 1005.8 |
| 20260902103603 | 0 | 0.0 | 0.0 | 0.00 | 0.00 | 0.00 | |||
| 20260902103458 | 56 | 111 | 7.0 | 10.0 | 0.00 | 0.00 | 0.00 | 81 | 1005.9 |
| 20260902103108 | 0 | 0.0 | 0.0 | 0.00 | 0.00 | 0.00 | |||
| 20260902102957 | 56 | 113 | 7.0 | 10.0 | 0.00 | 0.00 | 0.00 | 82 | 1005.9 |
| 20260902102604 | 0 | 0.0 | 0.0 | 0.00 | 0.00 | 0.00 | |||
| 20260902102457 | 56 | 112 | 7.0 | 9.0 | 0.00 | 0.00 | 0.00 | 82 | 1006.0 |
| 20260902102104 | 0 | 0.0 | 0.0 | 0.00 | 0.00 | 0.00 | |||
| 20260902101957 | 56 | 122 | 6.0 | 8.0 | 0.00 | 0.00 | 0.00 | 82 | 1006.0 |
| 20260902101603 | 0 | 0.0 | 0.0 | 0.00 | 0.00 | 0.00 | |||
| 20260902101458 | 56 | 117 | 7.0 | 9.0 | 0.00 | 0.00 | 0.00 | 83 | 1006.0 |
| 20260902100957 | 56 | 124 | 5.0 | 7.0 | 0.00 | 0.00 | 0.00 | 83 | 1006.0 |
| 20260902100603 | 0 | 0.0 | 0.0 | 0.00 | 0.00 | 0.00 | |||
| 20260902100457 | 56 | 129 | 7.0 | 9.0 | 0.00 | 0.00 | 0.00 | 83 | 1006.0 |
| 20260902100104 | 0 | 0.0 | 0.0 | 0.00 | 0.00 | 0.00 | |||
| 20260902095957 | 56 | 121 | 6.0 | 8.0 | 0.00 | 0.00 | 0.00 | 84 | 1005.9 |
| 20260902095458 | 56 | 120 | 6.0 | 8.0 | 0.00 | 0.00 | 0.00 | 84 | 1006.0 |
| 20260902094957 | 56 | 120 | 7.0 | 11.0 | 0.00 | 0.00 | 0.00 | 84 | 1006.1 |
| 20260902094601 | 0 | 0.0 | 0.0 | 0.00 | 0.00 | 0.00 | |||
| 20260902094457 | 56 | 125 | 7.0 | 10.0 | 0.00 | 0.00 | 0.00 | 84 | 1006.1 |
| 20260902094058 | 0 | 0.0 | 0.0 | 0.00 | 0.00 | 0.00 | |||
| 20260902093958 | 56 | 118 | 7.0 | 11.0 | 0.00 | 0.00 | 0.00 | 85 | 1006.2 |
| 20260902093556 | 0 | 0.0 | 0.0 | 0.00 | 0.00 | 0.00 | |||
| 20260902093457 | 56 | 124 | 6.0 | 9.0 | 0.00 | 0.00 | 0.00 | 86 | 1006.2 |
| 20260902093056 | 0 | 0.0 | 0.0 | 0.00 | 0.00 | 0.00 | |||
| 20260902092957 | 56 | 119 | 6.0 | 9.0 | 0.00 | 0.00 | 0.00 | 86 | 1006.4 |
| 20260902092555 | 0 | 0.0 | 0.0 | 0.00 | 0.00 | 0.00 | |||
| 20260902092459 | 56 | 115 | 8.0 | 10.0 | 0.00 | 0.00 | 0.00 | 86 | 1006.4 |
| 20260902091957 | 57 | 122 | 7.0 | 9.0 | 0.00 | 0.00 | 0.00 | 86 | 1006.5 |
| 20260902091555 | 0 | 0.0 | 0.0 | 0.00 | 0.00 | 0.00 | |||
| 20260902091457 | 57 | 120 | 7.0 | 11.0 | 0.00 | 0.00 | 0.00 | 87 | 1006.6 |
| 20260902091055 | 0 | 0.0 | 0.0 | 0.00 | 0.00 | 0.00 | |||
| 20260902090958 | 57 | 121 | 6.0 | 8.0 | 0.00 | 0.00 | 0.00 | 87 | 1006.7 |
| 20260902090556 | 0 | 0.0 | 0.0 | 0.00 | 0.00 | 0.00 | |||
| 20260902090458 | 57 | 120 | 6.0 | 9.0 | 0.00 | 0.00 | 0.00 | 87 | 1006.7 |
| 20260902090056 | 0 | 0.0 | 0.0 | 0.00 | 0.00 | 0.00 | |||
| 20260902085957 | 57 | 118 | 7.0 | 9.0 | 0.00 | 0.00 | 0.00 | 87 | 1006.7 |
| 20260902085555 | 0 | 0.0 | 0.0 | 0.00 | 0.00 | 0.00 | |||
| 20260902085457 | 57 | 129 | 5.0 | 7.0 | 0.00 | 0.00 | 0.00 | 87 | 1006.7 |
| 20260902084958 | 57 | 126 | 6.0 | 8.0 | 0.00 | 0.00 | 0.00 | 87 | 1006.7 |
| 20260902084553 | 0 | 0.0 | 0.0 | 0.00 | 0.00 | 0.00 | |||
| 20260902084457 | 57 | 124 | 6.0 | 9.0 | 0.00 | 0.00 | 0.00 | 87 | 1006.8 |
| 20260902083958 | 57 | 128 | 5.0 | 6.0 | 0.00 | 0.00 | 0.00 | 87 | 1006.9 |
| 20260902083553 | 0 | 0.0 | 0.0 | 0.00 | 0.00 | 0.00 | |||
| 20260902083053 | 0 | 0.0 | 0.0 | 0.00 | 0.00 | 0.00 | |||
| 20260902083008 | 57 | 126 | 6.0 | 8.0 | 0.00 | 0.00 | 0.00 | 87 | 1006.9 |
| 20260902082553 | 0 | 0.0 | 0.0 | 0.00 | 0.00 | 0.00 | |||
| 20260902082457 | 57 | 130 | 6.0 | 8.0 | 0.00 | 0.00 | 0.00 | 87 | 1006.9 |
| 20260902081957 | 57 | 124 | 6.0 | 8.0 | 0.00 | 0.00 | 0.00 | 87 | 1006.9 |
| 20260902081457 | 57 | 128 | 6.0 | 7.0 | 0.00 | 0.00 | 0.00 | 86 | 1006.9 |
| 20260902080958 | 57 | 131 | 6.0 | 9.0 | 0.00 | 0.00 | 0.00 | 86 | 1006.9 |
| 20260902080554 | 0 | 0.0 | 0.0 | 0.00 | 0.00 | 0.00 | |||
| 20260902080459 | 57 | 128 | 5.0 | 6.0 | 0.00 | 0.00 | 0.00 | 86 | 1007.0 |
| 20260902080052 | 0 | 0.0 | 0.0 | 0.00 | 0.00 | 0.00 | |||
| 20260902075958 | 57 | 128 | 6.0 | 9.0 | 0.00 | 0.00 | 0.00 | 86 | 1006.9 |
| 20260902075552 | 0 | 0.0 | 0.0 | 0.00 | 0.00 | 0.00 | |||
| 20260902075457 | 57 | 122 | 6.0 | 7.0 | 0.00 | 0.00 | 0.00 | 86 | 1007.0 |
| 20260902075053 | 0 | 0.0 | 0.0 | 0.00 | 0.00 | 0.00 | |||
| 20260902075001 | 57 | 127 | 5.0 | 7.0 | 0.00 | 0.00 | 0.00 | 86 | 1007.1 |
| 20260902074552 | 0 | 0.0 | 0.0 | 0.00 | 0.00 | 0.00 | |||
| 20260902074457 | 57 | 124 | 6.0 | 8.0 | 0.00 | 0.00 | 0.00 | 85 | 1007.0 |
| 20260902074052 | 0 | 0.0 | 0.0 | 0.00 | 0.00 | 0.00 | |||
| 20260902073957 | 57 | 121 | 7.0 | 9.0 | 0.00 | 0.00 | 0.00 | 85 | 1007.1 |
| 20260902073458 | 57 | 124 | 6.0 | 8.0 | 0.00 | 0.00 | 0.00 | 85 | 1007.0 |
| 20260902073052 | 0 | 0.0 | 0.0 | 0.00 | 0.00 | 0.00 | |||
| 20260902072957 | 57 | 119 | 6.0 | 8.0 | 0.00 | 0.00 | 0.00 | 85 | 1007.1 |
| 20260902072457 | 57 | 125 | 6.0 | 10.0 | 0.00 | 0.00 | 0.00 | 85 | 1007.1 |
| 20260902072056 | 0 | 0.0 | 0.0 | 0.00 | 0.00 | 0.00 | |||
| 20260902071957 | 57 | 121 | 6.0 | 8.0 | 0.00 | 0.00 | 0.00 | 85 | 1007.1 |
| 20260902071552 | 0 | 0.0 | 0.0 | 0.00 | 0.00 | 0.00 | |||
| 20260902071457 | 57 | 124 | 6.0 | 8.0 | 0.00 | 0.00 | 0.00 | 85 | 1007.2 |
| 20260902070957 | 57 | 126 | 6.0 | 9.0 | 0.00 | 0.00 | 0.00 | 85 | 1007.2 |
| 20260902070556 | 0 | 0.0 | 0.0 | 0.00 | 0.00 | 0.00 | |||
| 20260902070457 | 57 | 122 | 6.0 | 8.0 | 0.00 | 0.00 | 0.00 | 85 | 1007.4 |
| 20260902070052 | 0 | 0.0 | 0.0 | 0.00 | 0.00 | 0.00 | |||
| 20260902065957 | 57 | 121 | 6.0 | 8.0 | 0.00 | 0.00 | 0.00 | 85 | 1007.5 |
| 20260902065457 | 58 | 124 | 6.0 | 8.0 | 0.00 | 0.00 | 0.00 | 85 | 1007.5 |
| 20260902064958 | 58 | 129 | 6.0 | 9.0 | 0.00 | 0.00 | 0.00 | 85 | 1007.6 |
| 20260902064457 | 58 | 127 | 5.0 | 7.0 | 0.00 | 0.00 | 0.00 | 84 | 1007.6 |
| 20260902064052 | 0 | 0.0 | 0.0 | 0.00 | 0.00 | 0.00 | |||
| 20260902063957 | 58 | 138 | 5.0 | 7.0 | 0.00 | 0.00 | 0.00 | 84 | 1007.7 |
| 20260902063556 | 0 | 0.0 | 0.0 | 0.00 | 0.00 | 0.00 | |||
| 20260902063457 | 58 | 129 | 5.0 | 9.0 | 0.00 | 0.00 | 0.00 | 85 | 1007.7 |
| 20260902063050 | 0 | 0.0 | 0.0 | 0.00 | 0.00 | 0.00 | |||
| 20260902062958 | 58 | 125 | 6.0 | 7.0 | 0.00 | 0.00 | 0.00 | 85 | 1007.7 |
| 20260902062556 | 0 | 0.0 | 0.0 | 0.00 | 0.00 | 0.00 | |||
| 20260902062457 | 58 | 125 | 5.0 | 7.0 | 0.00 | 0.00 | 0.00 | 84 | 1007.8 |
| 20260902062047 | 0 | 0.0 | 0.0 | 0.00 | 0.00 | 0.00 | |||
| 20260902061957 | 58 | 125 | 6.0 | 9.0 | 0.00 | 0.00 | 0.00 | 84 | 1007.8 |
| 20260902061457 | 58 | 131 | 5.0 | 7.0 | 0.00 | 0.00 | 0.00 | 84 | 1007.7 |
| 20260902061047 | 0 | 0.0 | 0.0 | 0.00 | 0.00 | 0.00 | |||
| 20260902060958 | 58 | 145 | 5.0 | 9.0 | 0.00 | 0.00 | 0.00 | 84 | 1007.8 |
| 20260902060547 | 0 | 0.0 | 0.0 | 0.00 | 0.00 | 0.00 | |||
| 20260902060457 | 58 | 129 | 6.0 | 8.0 | 0.00 | 0.00 | 0.00 | 83 | 1007.8 |
| 20260902060048 | 0 | 0.0 | 0.0 | 0.00 | 0.00 | 0.00 | |||
| 20260902055958 | 58 | 119 | 6.0 | 10.0 | 0.00 | 0.00 | 0.00 | 83 | 1007.9 |
| 20260902055457 | 58 | 127 | 6.0 | 9.0 | 0.00 | 0.00 | 0.00 | 83 | 1007.8 |
| 20260902055053 | 0 | 0.0 | 0.0 | 0.00 | 0.00 | 0.00 | |||
| 20260902054957 | 59 | 116 | 7.0 | 8.0 | 0.00 | 0.00 | 0.00 | 83 | 1007.8 |
| 20260902054547 | 0 | 0.0 | 0.0 | 0.00 | 0.00 | 0.00 | |||
| 20260902054457 | 59 | 124 | 5.0 | 8.0 | 0.00 | 0.00 | 0.00 | 83 | 1007.8 |
| 20260902054048 | 0 | 0.0 | 0.0 | 0.00 | 0.00 | 0.00 | |||
| 20260902053957 | 59 | 122 | 5.0 | 9.0 | 0.00 | 0.00 | 0.00 | 82 | 1007.8 |
| 20260902053551 | 0 | 0.0 | 0.0 | 0.00 | 0.00 | 0.00 | |||
| 20260902053457 | 59 | 114 | 6.0 | 7.0 | 0.00 | 0.00 | 0.00 | 82 | 1007.8 |
| 20260902053048 | 0 | 0.0 | 0.0 | 0.00 | 0.00 | 0.00 | |||
| 20260902052958 | 59 | 130 | 5.0 | 7.0 | 0.00 | 0.00 | 0.00 | 81 | 1008.0 |
| 20260902052550 | 0 | 0.0 | 0.0 | 0.00 | 0.00 | 0.00 | |||
| 20260902052457 | 59 | 117 | 5.0 | 6.0 | 0.00 | 0.00 | 0.00 | 81 | 1008.1 |
| 20260902052048 | 0 | 0.0 | 0.0 | 0.00 | 0.00 | 0.00 | |||
| 20260902051957 | 59 | 128 | 4.0 | 5.0 | 0.00 | 0.00 | 0.00 | 81 | 1008.2 |
| 20260902051457 | 59 | 120 | 5.0 | 7.0 | 0.00 | 0.00 | 0.00 | 80 | 1008.2 |
| 20260902051045 | 0 | 0.0 | 0.0 | 0.00 | 0.00 | 0.00 | |||
| 20260902050958 | 59 | 123 | 5.0 | 6.0 | 0.00 | 0.00 | 0.00 | 80 | 1008.2 |
| 20260902050546 | 0 | 0.0 | 0.0 | 0.00 | 0.00 | 0.00 | |||
| 20260902050457 | 59 | 134 | 4.0 | 6.0 | 0.00 | 0.00 | 0.00 | 80 | 1008.2 |
| 20260902050045 | 0 | 0.0 | 0.0 | 0.00 | 0.00 | 0.00 | |||
| 20260902045957 | 59 | 129 | 5.0 | 7.0 | 0.00 | 0.00 | 0.00 | 80 | 1008.2 |
| 20260902045545 | 0 | 0.0 | 0.0 | 0.00 | 0.00 | 0.00 | |||
| 20260902045457 | 60 | 131 | 4.0 | 5.0 | 0.00 | 0.00 | 0.00 | 79 | 1008.2 |
| 20260902044957 | 60 | 126 | 4.0 | 5.0 | 0.00 | 0.00 | 0.00 | 79 | 1008.2 |
| 20260902044546 | 0 | 0.0 | 0.0 | 0.00 | 0.00 | 0.00 | |||
| 20260902044459 | 60 | 118 | 4.0 | 6.0 | 0.00 | 0.00 | 0.00 | 78 | 1008.2 |
| 20260902043958 | 60 | 124 | 4.0 | 6.0 | 0.00 | 0.00 | 0.00 | 77 | 1008.2 |
| 20260902043457 | 60 | 116 | 4.0 | 6.0 | 0.00 | 0.00 | 0.00 | 77 | 1008.2 |
| 20260902043046 | 0 | 0.0 | 0.0 | 0.00 | 0.00 | 0.00 | |||
| 20260902042959 | 60 | 110 | 5.0 | 6.0 | 0.00 | 0.00 | 0.00 | 77 | 1008.2 |
| 20260902042546 | 0 | 0.0 | 0.0 | 0.00 | 0.00 | 0.00 | |||
| 20260902042457 | 60 | 117 | 4.0 | 6.0 | 0.00 | 0.00 | 0.00 | 77 | 1008.3 |
| 20260902042044 | 0 | 0.0 | 0.0 | 0.00 | 0.00 | 0.00 | |||
| 20260902041957 | 60 | 123 | 3.0 | 4.0 | 0.00 | 0.00 | 0.00 | 77 | 1008.3 |
| 20260902041540 | 0 | 0.0 | 0.0 | 0.00 | 0.00 | 0.00 | |||
| 20260902041457 | 60 | 120 | 4.0 | 6.0 | 0.00 | 0.00 | 0.00 | 77 | 1008.4 |
| 20260902041037 | 0 | 0.0 | 0.0 | 0.00 | 0.00 | 0.00 | |||
| 20260902041010 | 60 | 130 | 3.0 | 6.0 | 0.00 | 0.00 | 0.00 | 77 | 1008.3 |
| 20260902040457 | 60 | 114 | 4.0 | 5.0 | 0.00 | 0.00 | 0.00 | 77 | 1008.3 |
| 20260902040037 | 0 | 0.0 | 0.0 | 0.00 | 0.00 | 0.00 | |||
| 20260902035957 | 60 | 118 | 3.0 | 5.0 | 0.00 | 0.00 | 0.00 | 77 | 1008.3 |
| 20260902035538 | 0 | 0.0 | 0.0 | 0.00 | 0.00 | 0.00 | |||
| 20260902035457 | 60 | 119 | 4.0 | 5.0 | 0.00 | 0.00 | 0.00 | 76 | 1008.3 |
| 20260902035038 | 0 | 0.0 | 0.0 | 0.00 | 0.00 | 0.00 | |||
| 20260902034957 | 60 | 112 | 3.0 | 4.0 | 0.00 | 0.00 | 0.00 | 76 | 1008.3 |
| 20260902034538 | 0 | 0.0 | 0.0 | 0.00 | 0.00 | 0.00 | |||
| 20260902034457 | 60 | 118 | 3.0 | 4.0 | 0.00 | 0.00 | 0.00 | 77 | 1008.4 |
| 20260902034038 | 0 | 0.0 | 0.0 | 0.00 | 0.00 | 0.00 | |||
| 20260902033957 | 60 | 125 | 3.0 | 4.0 | 0.00 | 0.00 | 0.00 | 77 | 1008.4 |
| 20260902033537 | 0 | 0.0 | 0.0 | 0.00 | 0.00 | 0.00 | |||
| 20260902033459 | 60 | 129 | 3.0 | 5.0 | 0.00 | 0.00 | 0.00 | 76 | 1008.4 |
| 20260902033037 | 0 | 0.0 | 0.0 | 0.00 | 0.00 | 0.00 | |||
| 20260902032957 | 60 | 106 | 4.0 | 5.0 | 0.00 | 0.00 | 0.00 | 77 | 1008.3 |
| 20260902032458 | 60 | 113 | 3.0 | 5.0 | 0.00 | 0.00 | 0.00 | 77 | 1008.4 |
| 20260902032035 | 0 | 0.0 | 0.0 | 0.00 | 0.00 | 0.00 | |||
| 20260902031957 | 60 | 132 | 3.0 | 4.0 | 0.00 | 0.00 | 0.00 | 77 | 1008.4 |
| 20260902031535 | 0 | 0.0 | 0.0 | 0.00 | 0.00 | 0.00 | |||
| 20260902031457 | 60 | 125 | 2.0 | 4.0 | 0.00 | 0.00 | 0.00 | 76 | 1008.3 |
| 20260902031036 | 0 | 0.0 | 0.0 | 0.00 | 0.00 | 0.00 | |||
| 20260902030958 | 60 | 116 | 4.0 | 5.0 | 0.00 | 0.00 | 0.00 | 76 | 1008.3 |
| 20260902030535 | 0 | 0.0 | 0.0 | 0.00 | 0.00 | 0.00 | |||
| 20260902030457 | 60 | 120 | 3.0 | 5.0 | 0.00 | 0.00 | 0.00 | 76 | 1008.3 |
| 20260902030035 | 0 | 0.0 | 0.0 | 0.00 | 0.00 | 0.00 | |||
| 20260902025957 | 60 | 133 | 3.0 | 4.0 | 0.00 | 0.00 | 0.00 | 75 | 1008.3 |
| 20260902025535 | 0 | 0.0 | 0.0 | 0.00 | 0.00 | 0.00 | |||
| 20260902025458 | 60 | 128 | 3.0 | 4.0 | 0.00 | 0.00 | 0.00 | 75 | 1008.3 |
| 20260902024957 | 60 | 129 | 3.0 | 6.0 | 0.00 | 0.00 | 0.00 | 75 | 1008.3 |
| 20260902024537 | 0 | 0.0 | 0.0 | 0.00 | 0.00 | 0.00 | |||
| 20260902024457 | 60 | 125 | 3.0 | 4.0 | 0.00 | 0.00 | 0.00 | 75 | 1008.3 |
| 20260902023957 | 60 | 123 | 3.0 | 4.0 | 0.00 | 0.00 | 0.00 | 75 | 1008.3 |
| 20260902023535 | 0 | 0.0 | 0.0 | 0.00 | 0.00 | 0.00 | |||
| 20260902023458 | 60 | 113 | 4.0 | 6.0 | 0.00 | 0.00 | 0.00 | 75 | 1008.3 |
| 20260902023036 | 0 | 0.0 | 0.0 | 0.00 | 0.00 | 0.00 | |||
| 20260902022957 | 60 | 115 | 3.0 | 5.0 | 0.00 | 0.00 | 0.00 | 74 | 1008.3 |
| 20260902022457 | 60 | 130 | 3.0 | 5.0 | 0.00 | 0.00 | 0.00 | 74 | 1008.3 |
| 20260902022034 | 0 | 0.0 | 0.0 | 0.00 | 0.00 | 0.00 | |||
| 20260902021957 | 60 | 102 | 5.0 | 8.0 | 0.00 | 0.00 | 0.00 | 73 | 1008.3 |
| 20260902021533 | 0 | 0.0 | 0.0 | 0.00 | 0.00 | 0.00 | |||
| 20260902021458 | 60 | 111 | 4.0 | 6.0 | 0.00 | 0.00 | 0.00 | 73 | 1008.4 |
| 20260902021035 | 0 | 0.0 | 0.0 | 0.00 | 0.00 | 0.00 | |||
| 20260902020957 | 60 | 107 | 4.0 | 6.0 | 0.00 | 0.00 | 0.00 | 73 | 1008.4 |
| 20260902020535 | 0 | 0.0 | 0.0 | 0.00 | 0.00 | 0.00 | |||
| 20260902020457 | 60 | 115 | 4.0 | 4.0 | 0.00 | 0.00 | 0.00 | 73 | 1008.5 |
| 20260902020033 | 0 | 0.0 | 0.0 | 0.00 | 0.00 | 0.00 | |||
| 20260902015957 | 60 | 107 | 4.0 | 6.0 | 0.00 | 0.00 | 0.00 | 73 | 1008.5 |
| 20260902015534 | 0 | 0.0 | 0.0 | 0.00 | 0.00 | 0.00 | |||
| 20260902015457 | 60 | 116 | 3.0 | 4.0 | 0.00 | 0.00 | 0.00 | 73 | 1008.5 |
| 20260902015034 | 0 | 0.0 | 0.0 | 0.00 | 0.00 | 0.00 | |||
| 20260902014957 | 60 | 111 | 4.0 | 5.0 | 0.00 | 0.00 | 0.00 | 72 | 1008.5 |
| 20260902014533 | 0 | 0.0 | 0.0 | 0.00 | 0.00 | 0.00 | |||
| 20260902014456 | 60 | 112 | 4.0 | 6.0 | 0.00 | 0.00 | 0.00 | 73 | 1008.6 |
| 20260902014034 | 0 | 0.0 | 0.0 | 0.00 | 0.00 | 0.00 | |||
| 20260902013957 | 60 | 90 | 5.0 | 7.0 | 0.00 | 0.00 | 0.00 | 72 | 1008.6 |
| 20260902013457 | 60 | 118 | 4.0 | 5.0 | 0.00 | 0.00 | 0.00 | 72 | 1008.7 |
| 20260902013034 | 0 | 0.0 | 0.0 | 0.00 | 0.00 | 0.00 | |||
| 20260902012957 | 61 | 108 | 5.0 | 8.0 | 0.00 | 0.00 | 0.00 | 72 | 1008.5 |
| 20260902012457 | 60 | 125 | 4.0 | 5.0 | 0.00 | 0.00 | 0.00 | 72 | 1008.5 |
| 20260902012033 | 0 | 0.0 | 0.0 | 0.00 | 0.00 | 0.00 | |||
| 20260902011957 | 60 | 104 | 6.0 | 9.0 | 0.00 | 0.00 | 0.00 | 72 | 1008.4 |
| 20260902011531 | 0 | 0.0 | 0.0 | 0.00 | 0.00 | 0.00 | |||
| 20260902011457 | 60 | 101 | 6.0 | 8.0 | 0.00 | 0.00 | 0.00 | 72 | 1008.4 |
| 20260902011032 | 0 | 0.0 | 0.0 | 0.00 | 0.00 | 0.00 | |||
| 20260902010958 | 60 | 104 | 6.0 | 7.0 | 0.00 | 0.00 | 0.00 | 73 | 1008.4 |
| 20260902010533 | 0 | 0.0 | 0.0 | 0.00 | 0.00 | 0.00 | |||
| 20260902010457 | 60 | 112 | 5.0 | 6.0 | 0.00 | 0.00 | 0.00 | 73 | 1008.4 |
| 20260902005957 | 60 | 121 | 4.0 | 6.0 | 0.00 | 0.00 | 0.00 | 73 | 1008.4 |
| 20260902005457 | 60 | 130 | 4.0 | 5.0 | 0.00 | 0.00 | 0.00 | 73 | 1008.4 |
| 20260902005032 | 0 | 0.0 | 0.0 | 0.00 | 0.00 | 0.00 | |||
| 20260902004957 | 60 | 137 | 4.0 | 7.0 | 0.00 | 0.00 | 0.00 | 73 | 1008.4 |
| 20260902004533 | 0 | 0.0 | 0.0 | 0.00 | 0.00 | 0.00 | |||
| 20260902004457 | 60 | 114 | 4.0 | 5.0 | 0.00 | 0.00 | 0.00 | 72 | 1008.3 |
| 20260902004032 | 0 | 0.0 | 0.0 | 0.00 | 0.00 | 0.00 | |||
| 20260902003958 | 60 | 114 | 4.0 | 6.0 | 0.00 | 0.00 | 0.00 | 72 | 1008.3 |
| 20260902003531 | 0 | 0.0 | 0.0 | 0.00 | 0.00 | 0.00 | |||
| 20260902003457 | 60 | 113 | 5.0 | 6.0 | 0.00 | 0.00 | 0.00 | 73 | 1008.4 |
| 20260902003032 | 0 | 0.0 | 0.0 | 0.00 | 0.00 | 0.00 | |||
| 20260902002957 | 60 | 111 | 5.0 | 7.0 | 0.00 | 0.00 | 0.00 | 72 | 1008.4 |
| 20260902002532 | 0 | 0.0 | 0.0 | 0.00 | 0.00 | 0.00 | |||
| 20260902002457 | 60 | 106 | 6.0 | 7.0 | 0.00 | 0.00 | 0.00 | 72 | 1008.4 |
| 20260902002032 | 0 | 0.0 | 0.0 | 0.00 | 0.00 | 0.00 | |||
| 20260902001957 | 61 | 115 | 4.0 | 5.0 | 0.00 | 0.00 | 0.00 | 72 | 1008.4 |
| 20260902001537 | 0 | 0.0 | 0.0 | 0.00 | 0.00 | 0.00 | |||
| 20260902001457 | 61 | 114 | 5.0 | 6.0 | 0.00 | 0.00 | 0.00 | 72 | 1008.4 |
| 20260902001029 | 0 | 0.0 | 0.0 | 0.00 | 0.00 | 0.00 | |||
| 20260902000957 | 61 | 116 | 4.0 | 6.0 | 0.00 | 0.00 | 0.00 | 72 | 1008.4 |
| 20260902000534 | 0 | 0.0 | 0.0 | 0.00 | 0.00 | 0.00 | |||
| 20260902000459 | 61 | 121 | 4.0 | 6.0 | 0.00 | 0.00 | 0.00 | 72 | 1008.3 |
| 20260902000032 | 0 | 0.0 | 0.0 | 0.00 | 0.00 | 0.00 | |||
| 20260901235957 | 61 | 111 | 6.0 | 7.0 | 0.00 | 0.00 | 0.00 | 72 | 1008.3 |
| 20260901235458 | 61 | 108 | 5.0 | 7.0 | 0.00 | 0.00 | 0.00 | 72 | 1008.4 |
| 20260901234957 | 61 | 116 | 5.0 | 6.0 | 0.00 | 0.00 | 0.00 | 72 | 1008.3 |
| 20260901234457 | 61 | 104 | 5.0 | 6.0 | 0.00 | 0.00 | 0.00 | 73 | 1008.3 |
| 20260901233958 | 61 | 116 | 5.0 | 6.0 | 0.00 | 0.00 | 0.00 | 72 | 1008.4 |
| 20260901233530 | 0 | 0.0 | 0.0 | 0.00 | 0.00 | 0.00 | |||
| 20260901233457 | 61 | 111 | 5.0 | 7.0 | 0.00 | 0.00 | 0.00 | 73 | 1008.3 |
| 20260901232957 | 61 | 112 | 6.0 | 8.0 | 0.00 | 0.00 | 0.00 | 72 | 1008.3 |
| 20260901232530 | 0 | 0.0 | 0.0 | 0.00 | 0.00 | 0.00 | |||
| 20260901232508 | 62 | 132 | 4.0 | 6.0 | 0.00 | 0.00 | 0.00 | 72 | 1008.3 |
| 20260901232027 | 0 | 0.0 | 0.0 | 0.00 | 0.00 | 0.00 | |||
| 20260901231957 | 62 | 132 | 5.0 | 6.0 | 0.00 | 0.00 | 0.00 | 72 | 1008.3 |
| 20260901231527 | 0 | 0.0 | 0.0 | 0.00 | 0.00 | 0.00 | |||
| 20260901231458 | 62 | 123 | 5.0 | 9.0 | 0.00 | 0.00 | 0.00 | 72 | 1008.3 |
| 20260901231028 | 0 | 0.0 | 0.0 | 0.00 | 0.00 | 0.00 | |||
| 20260901230957 | 62 | 131 | 5.0 | 7.0 | 0.00 | 0.00 | 0.00 | 71 | 1008.3 |
| 20260901230528 | 0 | 0.0 | 0.0 | 0.00 | 0.00 | 0.00 | |||
| 20260901230458 | 62 | 121 | 6.0 | 9.0 | 0.00 | 0.00 | 0.00 | 71 | 1008.2 |
| 20260901230027 | 0 | 0.0 | 0.0 | 0.00 | 0.00 | 0.00 | |||
| 20260901225958 | 62 | 131 | 4.0 | 6.0 | 0.00 | 0.00 | 0.00 | 71 | 1008.1 |
| 20260901225527 | 0 | 0.0 | 0.0 | 0.00 | 0.00 | 0.00 | |||
| 20260901225457 | 62 | 113 | 5.0 | 8.0 | 0.00 | 0.00 | 0.00 | 72 | 1008.1 |
| 20260901224958 | 61 | 118 | 6.0 | 9.0 | 0.00 | 0.00 | 0.00 | 72 | 1008.1 |
| 20260901224457 | 61 | 109 | 6.0 | 9.0 | 0.00 | 0.00 | 0.00 | 73 | 1008.2 |
| 20260901223957 | 62 | 115 | 6.0 | 7.0 | 0.00 | 0.00 | 0.00 | 73 | 1008.2 |
| 20260901223527 | 0 | 0.0 | 0.0 | 0.00 | 0.00 | 0.00 | |||
| 20260901223458 | 62 | 132 | 4.0 | 6.0 | 0.00 | 0.00 | 0.00 | 72 | 1008.2 |
| 20260901223028 | 0 | 0.0 | 0.0 | 0.00 | 0.00 | 0.00 | |||
| 20260901222957 | 62 | 135 | 6.0 | 9.0 | 0.00 | 0.00 | 0.00 | 71 | 1008.2 |
| 20260901222526 | 0 | 0.0 | 0.0 | 0.00 | 0.00 | 0.00 | |||
| 20260901222457 | 63 | 121 | 7.0 | 9.0 | 0.00 | 0.00 | 0.00 | 68 | 1008.2 |
| 20260901222024 | 0 | 0.0 | 0.0 | 0.00 | 0.00 | 0.00 | |||
| 20260901221957 | 63 | 151 | 4.0 | 5.0 | 0.00 | 0.00 | 0.00 | 69 | 1008.1 |
| 20260901221459 | 63 | 145 | 6.0 | 11.0 | 0.00 | 0.00 | 0.00 | 69 | 1008.1 |
| 20260901221020 | 0 | 0.0 | 0.0 | 0.00 | 0.00 | 0.00 | |||
| 20260901221000 | 63 | 150 | 6.0 | 8.0 | 0.00 | 0.00 | 0.00 | 67 | 1008.2 |
| 20260901220521 | 0 | 0.0 | 0.0 | 0.00 | 0.00 | 0.00 | |||
| 20260901220458 | 63 | 149 | 4.0 | 7.0 | 0.00 | 0.00 | 0.00 | 69 | 1008.2 |
| 20260901215957 | 62 | 142 | 4.0 | 6.0 | 0.00 | 0.00 | 0.00 | 69 | 1008.3 |
| 20260901215457 | 62 | 131 | 4.0 | 6.0 | 0.00 | 0.00 | 0.00 | 70 | 1008.2 |
| 20260901215021 | 0 | 0.0 | 0.0 | 0.00 | 0.00 | 0.00 | |||
| 20260901214957 | 62 | 144 | 5.0 | 10.0 | 0.00 | 0.00 | 0.00 | 71 | 1008.3 |
| 20260901214521 | 0 | 0.0 | 0.0 | 0.00 | 0.00 | 0.00 | |||
| 20260901214458 | 62 | 127 | 4.0 | 7.0 | 0.00 | 0.00 | 0.00 | 72 | 1008.4 |
| 20260901214021 | 0 | 0.0 | 0.0 | 0.00 | 0.00 | 0.00 | |||
| 20260901213957 | 62 | 112 | 6.0 | 9.0 | 0.00 | 0.00 | 0.00 | 71 | 1008.4 |
| 20260901213523 | 0 | 0.0 | 0.0 | 0.00 | 0.00 | 0.00 | |||
| 20260901213457 | 62 | 108 | 5.0 | 8.0 | 0.00 | 0.00 | 0.00 | 72 | 1008.4 |
| 20260901212958 | 62 | 125 | 4.0 | 7.0 | 0.00 | 0.00 | 0.00 | 72 | 1008.5 |
| 20260901212458 | 61 | 120 | 5.0 | 7.0 | 0.00 | 0.00 | 0.00 | 73 | 1008.5 |
| 20260901212021 | 0 | 0.0 | 0.0 | 0.00 | 0.00 | 0.00 | |||
| 20260901211957 | 61 | 109 | 6.0 | 9.0 | 0.00 | 0.00 | 0.00 | 73 | 1008.5 |
| 20260901211457 | 61 | 114 | 6.0 | 8.0 | 0.00 | 0.00 | 0.00 | 72 | 1008.6 |
| 20260901211019 | 0 | 0.0 | 0.0 | 0.00 | 0.00 | 0.00 | |||
| 20260901210957 | 61 | 116 | 6.0 | 9.0 | 0.00 | 0.00 | 0.00 | 74 | 1008.6 |
| 20260901210518 | 0 | 0.0 | 0.0 | 0.00 | 0.00 | 0.00 | |||
| 20260901210458 | 61 | 120 | 6.0 | 9.0 | 0.00 | 0.00 | 0.00 | 74 | 1008.6 |
| 20260901210019 | 0 | 0.0 | 0.0 | 0.00 | 0.00 | 0.00 | |||
| 20260901205957 | 62 | 114 | 6.0 | 9.0 | 0.00 | 0.00 | 0.00 | 73 | 1008.5 |